Total_Precipitation_Accumulation
0.79 0.83 0.89 0.92 0.98 1.10 1.22 1.29 1.31 1.32 1.33 1.41 1.52 1.62 1.64 1.67 1.73 1.74 1.66 1.62 1.58 1.51 1.50 1.56 1.56 1.50 1.56 1.56 1.60 1.71 1.84 2.00 2.05 1.65 1.39 1.40 1.52 1.55 1.57 1.48 1.43 1.44 1.42
0.67 0.69 0.73 0.78 0.82 0.89 0.98 1.06 1.12 1.17 1.20 1.23 1.23 1.27 1.36 1.44 1.54 1.61 1.60 1.54 1.49 1.43 1.38 1.44 1.47 1.48 1.52 1.54 1.60 1.66 1.70 1.78 1.87 1.75 1.48 1.38 1.37 1.33 1.30 1.28 1.25 1.19 1.14
0.60 0.64 0.67 0.67 0.69 0.73 0.77 0.83 0.86 0.93 1.02 1.09 1.09 1.08 1.09 1.13 1.23 1.35 1.44 1.47 1.43 1.39 1.40 1.40 1.41 1.49 1.54 1.55 1.59 1.64 1.61 1.56 1.55 1.54 1.37 1.20 1.18 1.17 1.22 1.18 1.16 1.16 1.05
0.56 0.59 0.64 0.63 0.63 0.65 0.65 0.68 0.69 0.72 0.74 0.79 0.85 0.89 0.95 0.99 1.02 1.08 1.19 1.30 1.37 1.40 1.43 1.44 1.44 1.51 1.60 1.64 1.64 1.61 1.57 1.51 1.44 1.41 1.33 1.21 1.15 1.10 1.16 1.20 1.18 1.17 1.10
0.56 0.56 0.57 0.60 0.61 0.60 0.59 0.58 0.55 0.56 0.57 0.59 0.67 0.72 0.79 0.85 0.91 0.97 1.03 1.13 1.20 1.27 1.36 1.44 1.48 1.59 1.66 1.62 1.50 1.40 1.36 1.36 1.33 1.31 1.25 1.15 1.10 1.09 1.09 1.02 1.02 1.05 1.09
0.54 0.54 0.53 0.55 0.58 0.58 0.56 0.51 0.50 0.51 0.55 0.57 0.60 0.64 0.71 0.76 0.97 1.03 1.00 1.01 1.09 1.17 1.21 1.26 1.34 1.42 1.35 1.35 1.32 1.25 1.29 1.36 1.35 1.25 1.11 0.97 0.84 0.82 0.84 0.92 1.01 1.13 1.20
0.60 0.56 0.53 0.54 0.57 0.58 0.59 0.59 0.58 0.57 0.59 0.62 0.63 0.65 0.68 0.78 0.94 0.99 1.11 1.06 1.07 1.09 1.09 1.10 1.08 1.04 1.05 0.93 0.99 1.02 1.03 1.09 1.10 1.06 1.03 0.83 0.72 0.69 0.85 1.00 1.02 1.03 0.95
0.73 0.71 0.66 0.67 0.72 0.75 0.77 0.77 0.76 0.76 0.77 0.77 0.76 0.77 0.81 0.89 1.00 0.99 1.04 0.98 0.94 0.90 0.86 0.86 0.86 0.83 0.84 0.88 0.90 0.90 0.79 0.74 0.73 0.70 0.69 0.65 0.67 0.75 0.92 1.10 1.14 1.14 1.02
0.91 0.98 0.96 0.94 0.98 1.03 1.07 1.07 1.04 1.02 1.01 1.00 1.00 0.97 0.96 0.95 0.95 0.86 0.85 0.80 0.77 0.71 0.67 0.67 0.71 0.70 0.80 0.96 0.96 0.90 0.80 0.72 0.73 0.77 0.78 0.78 0.85 0.92 1.01 1.19 1.37 1.52 1.42
1.04 1.11 1.09 1.07 1.07 1.09 1.11 1.08 1.03 0.98 0.97 0.93 0.92 0.89 0.82 0.75 0.73 0.69 0.68 0.64 0.63 0.57 0.55 0.58 0.68 0.72 0.86 1.02 1.01 0.97 0.91 0.77 0.73 0.77 0.77 0.76 0.75 0.79 0.90 0.92 1.10 1.46 1.48
1.01 0.99 0.92 0.87 0.82 0.80 0.79 0.76 0.73 0.69 0.67 0.64 0.62 0.58 0.53 0.50 0.52 0.55 0.61 0.62 0.64 0.64 0.60 0.56 0.59 0.75 0.86 0.98 1.05 0.99 0.95 0.92 0.87 0.87 0.87 0.83 0.81 0.83 0.82 0.80 0.86 1.16 1.46
0.72 0.66 0.58 0.55 0.53 0.54 0.55 0.52 0.49 0.47 0.47 0.44 0.41 0.39 0.38 0.39 0.43 0.49 0.58 0.64 0.70 0.72 0.64 0.54 0.53 0.71 0.85 0.90 0.92 0.96 1.05 1.05 0.96 0.95 0.95 0.92 0.87 0.84 0.80 0.78 0.80 0.87 0.99
0.42 0.38 0.35 0.33 0.34 0.36 0.39 0.40 0.37 0.36 0.39 0.39 0.38 0.39 0.39 0.37 0.40 0.48 0.55 0.60 0.67 0.68 0.63 0.65 0.71 0.79 0.82 0.82 0.84 0.90 0.95 0.92 0.94 0.95 0.89 0.79 0.72 0.72 0.77 0.85 0.91 0.93 0.95
0.33 0.32 0.29 0.29 0.30 0.32 0.35 0.40 0.42 0.43 0.46 0.47 0.47 0.47 0.44 0.40 0.40 0.46 0.55 0.60 0.65 0.69 0.70 0.71 0.74 0.78 0.81 0.82 0.85 0.84 0.83 0.86 0.93 0.91 0.80 0.73 0.73 0.78 0.85 0.89 0.98 1.04 1.16
0.31 0.32 0.33 0.31 0.31 0.34 0.37 0.43 0.51 0.52 0.60 0.71 0.69 0.65 0.65 0.61 0.54 0.66 0.77 0.78 0.79 0.82 0.88 0.87 0.80 0.75 0.78 0.80 0.78 0.79 0.81 0.86 0.91 0.87 0.88 0.88 0.87 0.88 0.89 0.89 0.99 1.09 1.18
0.35 0.35 0.37 0.39 0.37 0.38 0.40 0.44 0.50 0.56 0.60 0.63 0.65 0.71 0.72 0.73 0.75 0.80 0.82 0.84 0.87 0.95 1.01 0.93 0.78 0.72 0.70 0.71 0.73 0.77 0.79 0.82 0.85 0.91 0.98 1.02 1.04 1.02 1.01 0.98 1.04 1.17 1.16
0.43 0.44 0.45 0.46 0.46 0.47 0.48 0.50 0.54 0.57 0.60 0.61 0.60 0.63 0.69 0.75 0.80 0.83 0.84 0.87 0.92 0.97 0.94 0.77 0.67 0.66 0.66 0.68 0.72 0.76 0.79 0.79 0.88 1.00 1.06 1.08 1.12 1.15 1.14 1.13 1.11 1.18 1.17
0.38 0.42 0.45 0.47 0.49 0.51 0.53 0.55 0.57 0.59 0.60 0.59 0.58 0.61 0.66 0.72 0.78 0.85 0.90 0.95 0.96 0.89 0.80 0.70 0.66 0.66 0.70 0.74 0.78 0.82 0.84 0.86 0.95 1.02 1.05 1.09 1.17 1.27 1.28 1.20 1.16 1.20 1.24
0.39 0.43 0.48 0.51 0.52 0.54 0.55 0.58 0.58 0.58 0.58 0.58 0.57 0.63 0.72 0.79 0.82 0.86 0.90 0.90 0.85 0.77 0.71 0.70 0.70 0.73 0.77 0.81 0.86 0.89 0.93 0.97 0.97 1.03 1.05 1.06 1.15 1.33 1.30 1.14 1.17 1.22 1.32
0.42 0.50 0.57 0.58 0.57 0.58 0.60 0.63 0.64 0.63 0.63 0.62 0.63 0.71 0.85 0.94 0.89 0.83 0.81 0.79 0.77 0.74 0.73 0.76 0.77 0.81 0.87 0.91 0.94 0.97 1.01 0.99 1.01 1.06 1.05 1.07 1.14 1.29 1.31 1.20 1.21 1.30 1.26
0.46 0.51 0.59 0.60 0.58 0.60 0.64 0.68 0.69 0.69 0.68 0.65 0.66 0.76 1.02 1.11 0.97 0.84 0.81 0.79 0.80 0.83 0.86 0.88 0.86 0.88 0.94 0.98 1.00 1.01 1.01 0.96 0.95 1.03 1.07 1.09 1.17 1.26 1.21 1.23 1.23 1.27 1.34
0.50 0.52 0.55 0.59 0.60 0.65 0.71 0.73 0.74 0.72 0.68 0.66 0.65 0.72 0.90 0.90 0.84 0.82 0.79 0.78 0.79 0.83 0.90 0.99 0.97 0.91 0.97 1.08 1.14 1.15 1.06 0.94 0.90 1.00 1.08 1.10 1.16 1.21 1.24 1.29 1.31 1.39 1.43
0.55 0.57 0.57 0.58 0.61 0.67 0.71 0.67 0.68 0.69 0.67 0.65 0.66 0.68 0.72 0.74 0.72 0.74 0.76 0.78 0.80 0.82 0.85 0.92 0.94 0.87 0.85 0.97 1.10 1.26 1.29 1.08 0.99 1.11 1.31 1.31 1.29 1.32 1.41 1.46 1.38 1.37 1.28
0.56 0.58 0.59 0.59 0.61 0.63 0.64 0.62 0.62 0.64 0.66 0.67 0.67 0.66 0.65 0.67 0.68 0.69 0.73 0.77 0.81 0.82 0.83 0.87 0.89 0.85 0.83 0.91 0.98 1.04 1.12 1.22 1.43 1.55 1.68 1.87 1.75 1.56 1.53 1.48 1.33 1.26 1.27
0.57 0.58 0.60 0.62 0.64 0.64 0.64 0.62 0.61 0.62 0.64 0.66 0.66 0.66 0.64 0.65 0.66 0.66 0.69 0.73 0.77 0.79 0.78 0.79 0.83 0.85 0.85 0.88 0.91 0.94 1.04 1.23 1.55 1.98 2.16 2.06 1.76 1.51 1.51 1.47 1.34 1.29 1.30
0.56 0.60 0.63 0.64 0.65 0.64 0.64 0.64 0.63 0.63 0.65 0.66 0.67 0.68 0.68 0.68 0.67 0.68 0.70 0.72 0.75 0.74 0.73 0.74 0.76 0.79 0.84 0.87 0.86 0.91 1.05 1.18 1.30 1.51 1.94 2.06 1.81 1.53 1.50 1.59 1.44 1.39 1.38